sat.trackr.live / text

‹ back to catalog

JILIN-1 GAOFEN 03D12

NORAD 51841 · 2022-019T

PAYLOAD ACTIVE UNKNOWN

§ Identity

Operator
Country
PRC
Launch date
2022-02-27
Launch site
WSC
Launch vehicle
Mass (kg)
RCS (m²)

External: N2YO · Heavens-Above · Gunter

§ Orbital elements

Epoch: 2026-06-04T13:42:03.354624Z

Period
88.11 min
Inclination
97.3493°
Eccentricity
0.0013636
Mean motion
16.34228631 rev/d
Perigee alt
172.3 km
Apogee alt
190.1 km
Semi-major
6,559.3 km
B*
8.0359e-4
RAAN
253.4173°
Arg perigee
262.3725°
Mean anomaly
97.6023°
Rev number
23,813

§ Raw data

JILIN-1 GAOFEN 03D121 51841U 22019T   26155.57087216  .05427683  24856-5  80359-3 0  99912 51841  97.3493 253.4173 0013636 262.3725  97.6023 16.34228631238137

JSON: /api/v1/satellites/51841 · /tle

For live sub-satellite position, see the globe view (requires WebGL).

§ Visibility from observer

Set your observer location to see the next 7 days of passes ≥ 10°. The values pass through the URL so the page stays shareable.

No JS? Fill the form by hand. The geolocation button needs JavaScript.

§ Radio — SatNOGS DB

ModeDescriptionDownlinkUplink
FM Mode U 401.734 MHz

1 transmitter · refreshed weekly from db.satnogs.org